Location: Big Prairie
(40.6673°N, 82.0952°W)
Time: 08:59:48
(UTC+00:00)

Meteor 1-26 Rocket - Pass Details

Date: 07 July 2022
Orbit: 810 x 924 km, 81.3° (Epoch: 14 August)

Event Time Altitude Azimuth Distance (km) Brightness Sun altitude
Rises 05:23:47 0° 358° (N) 3,504 8.7 -26.7°
Reaches altitude 10° 05:26:25 10° 6° (N) 2,577 7.7 -26.7°
Maximum altitude 05:31:53 38° 74° (ENE) 1,362 5.3 -26.7°
Enters shadow 05:33:19 33° 104° (ESE) 1,484 5.3 -26.8°
